Simultaneous Nadir Overpasses (SNOs) Predictions

Prediction of SNOs between METOP-B and TERRA Satellite Orbit:

Table of predicted SNOs for the next 14.0 days since TLE Epoch: 1/25/2014
Index Date (METOP-B) Time (METOP-B) Lat,Lon (METOP-B) SZA (METOP-B ) Date (TERRA) Time (TERRA) Lat,Lon (TERRA) SZA (TERRA ) Distance(km) Time Diff (sec)
1 01/27/2014 21:30:01 81.29, -95.67 101.87 01/27/2014 21:30:36 81.29, -95.85 101.86 3.05 35
2 01/27/2014 22:20:41 -81.29, 71.79 78.13 01/27/2014 22:20:03 -81.29, 71.73 78.16 1.22 38
3 01/30/2014 17:04:23 81.29, -29.45 101.08 01/30/2014 17:04:47 81.29, -29.42 101.10 0.43 24
4 01/30/2014 17:55:03 -81.29, 138.00 78.92 01/30/2014 17:54:14 -81.29, 138.19 78.92 3.27 49
5 02/02/2014 12:38:44 81.29, 37.11 100.30 02/02/2014 12:38:57 81.30, 37.23 100.32 2.29 13
6 02/02/2014 13:29:23 -81.30,-155.06 79.66 02/02/2014 13:28:24 -81.30,-155.13 79.69 1.06 59
7 02/05/2014 08:13:05 81.28, 103.22 99.42 02/05/2014 08:13:07 81.28, 103.36 99.43 2.31 2
8 02/05/2014 09:03:43 -81.30, -88.57 80.49 02/05/2014 09:02:33 -81.30, -88.60 80.52 0.72 70
9 02/08/2014 02:56:45 -81.28, 2.22 81.45 02/08/2014 02:57:51 -81.28, 2.14 81.44 1.45 66




NCC Satellite Simultaneous Nadir Overpasses (SNOs) Prediction Service
